Location: Aranbee
(34.0885°N, 118.2342°W)
Time: 08:59:44
(UTC+00:00)

Courier 1B Rocket - Pass Details

Date: 28 November 2020
Orbit: 920 x 1202 km, 28.2° (Epoch: 27 January)

Event Time Altitude Azimuth Distance (km) Brightness Sun altitude
Rises 15:37:01 0° 261° (W) 4,087 7.8 9.7°
Reaches altitude 10° 15:39:57 10° 257° (WSW) 3,110 7.3 10.2°
Maximum altitude 15:47:29 56° 182° (S) 1,345 6.3 11.5°
Drops below altitude 10° 15:54:37 10° 106° (ESE) 2,953 9.1 12.6°
Sets 15:57:21 0° 102° (ESE) 3,868 9.4 13.1°
